Location: Chefe Valiua
(16.5342°S, 37.2214°E)
Time: 05:46:25
(UTC+00:00)

Cosmos 44 Rocket - Pass Details

Date: 19 January 2021
Orbit: 637 x 753 km, 65.1° (Epoch: 07 March)

Event Time Altitude Azimuth Distance (km) Brightness Sun altitude
Rises 16:51:43 0° 207° (SSW) 2,949 7.4 -9.9°
Reaches altitude 10° 16:54:00 10° 209° (SSW) 2,039 6.6 -10.4°
Maximum altitude 16:58:35 71° 292° (WNW) 685 3.4 -11.4°
Drops below altitude 10° 17:03:13 10° 16° (NNE) 2,059 5.3 -12.4°
Enters shadow 17:03:57 - 17° (NNE) 2,348 5.6 -12.5°
